MEXSAT 3

Last updated on Sun Jun 21 2026 00:03:05 GMT+0000 (Coordinated Universal Time)

1 39035U 12075B 26171.36927704 -.00000030 00000+0 00000+0 0 9992 2 39035 0.0181 41.8550 0001514 32.8939 211.9577 1.00269027 7084
UTC large
Height (km)
Speed (km/s)
/
Latitude / Longitude
Inclination (degrees)
Orbital Period (minutes)
Azimuth
Elevation
Range (km)
Doppler Factor

Next 0 passes for location: London (51.5072 / 0.1276)

No passes found over London.
MEXSAT 3